| time (UTC) | temp F | wind direction | speed knots | gust knots | rain 1hr in | rain 24hr in | rain mn in | humidity % | barometer mb |
| 20260506203245 | 46 | 214 | 0.0 | 3.5 | 0.00 | 0.28 | 0.28 | 78 | 1012.9 |
| 20260506202244 | 47 | 214 | 1.7 | 3.5 | 0.00 | 0.28 | 0.28 | 78 | 1012.9 |
| 20260506201244 | 47 | 214 | 0.0 | 0.0 | 0.00 | 0.28 | 0.28 | 78 | 1012.9 |
| 20260506200244 | 47 | 214 | 0.0 | 0.9 | 0.00 | 0.28 | 0.28 | 77 | 1012.8 |
| 20260506195245 | 47 | 214 | 0.0 | 0.9 | 0.00 | 0.28 | 0.28 | 77 | 1012.5 |
| 20260506192243 | 47 | 214 | 1.7 | 3.5 | 0.00 | 0.28 | 0.28 | 76 | 1012.2 |
| 20260506191243 | 48 | 234 | 2.6 | 4.3 | 0.00 | 0.28 | 0.28 | 75 | 1012.1 |
| 20260506190240 | 49 | 239 | 2.6 | 7.0 | 0.00 | 0.28 | 0.28 | 74 | 1012.1 |
| 20260506185240 | 49 | 207 | 2.6 | 6.1 | 0.00 | 0.28 | 0.28 | 74 | 1012.1 |
| 20260506182238 | 50 | 215 | 2.6 | 6.1 | 0.00 | 0.28 | 0.28 | 72 | 1011.9 |
| 20260506180236 | 51 | 241 | 6.1 | 11.3 | 0.00 | 0.28 | 0.28 | 70 | 1011.6 |
| 20260506175237 | 51 | 244 | 7.0 | 10.4 | 0.00 | 0.28 | 0.28 | 69 | 1011.6 |
| 20260506174236 | 51 | 242 | 7.0 | 13.9 | 0.00 | 0.28 | 0.28 | 69 | 1011.7 |
| 20260506173236 | 51 | 242 | 8.7 | 13.9 | 0.00 | 0.28 | 0.28 | 68 | 1011.5 |
| 20260506172236 | 52 | 259 | 7.8 | 12.2 | 0.00 | 0.28 | 0.28 | 69 | 1011.5 |
| 20260506170235 | 52 | 273 | 6.1 | 13.0 | 0.00 | 0.28 | 0.28 | 71 | 1011.3 |
| 20260506164237 | 52 | 272 | 4.3 | 10.4 | 0.00 | 0.28 | 0.28 | 71 | 1011.2 |
| 20260506162236 | 53 | 272 | 7.8 | 12.2 | 0.00 | 0.28 | 0.28 | 69 | 1011.2 |
| 20260506161235 | 53 | 272 | 8.7 | 13.9 | 0.00 | 0.28 | 0.28 | 68 | 1011.3 |
| 20260506160252 | 52 | 265 | 7.0 | 13.0 | 0.00 | 0.28 | 0.28 | 74 | 1011.3 |
| 20260506155235 | 51 | 268 | 8.7 | 13.0 | 0.00 | 0.28 | 0.28 | 73 | 1011.3 |
| 20260506154236 | 51 | 270 | 7.0 | 11.3 | 0.00 | 0.28 | 0.28 | 73 | 1011.2 |
| 20260506152236 | 52 | 284 | 7.8 | 13.0 | 0.00 | 0.28 | 0.28 | 73 | 1011.2 |
| 20260506151237 | 51 | 262 | 7.0 | 12.2 | 0.00 | 0.28 | 0.28 | 75 | 1011.2 |
| 20260506150237 | 50 | 263 | 7.8 | 13.9 | 0.00 | 0.28 | 0.28 | 75 | 1011.3 |
| 20260506145236 | 50 | 254 | 7.8 | 13.9 | 0.00 | 0.28 | 0.28 | 77 | 1011.5 |
| 20260506144237 | 49 | 233 | 7.8 | 15.6 | 0.00 | 0.28 | 0.28 | 76 | 1011.5 |
| 20260506143236 | 49 | 253 | 7.0 | 10.4 | 0.00 | 0.28 | 0.28 | 77 | 1011.5 |
| 20260506140235 | 49 | 210 | 6.1 | 11.3 | 0.00 | 0.28 | 0.28 | 80 | 1011.2 |
| 20260506135233 | 48 | 229 | 5.2 | 11.3 | 0.00 | 0.28 | 0.28 | 80 | 1011.3 |
| 20260506133232 | 48 | 254 | 7.8 | 15.6 | 0.00 | 0.28 | 0.28 | 79 | 1011.4 |
| 20260506132232 | 48 | 238 | 8.7 | 17.4 | 0.00 | 0.28 | 0.28 | 78 | 1011.3 |
| 20260506131232 | 49 | 290 | 8.7 | 15.6 | 0.00 | 0.28 | 0.28 | 78 | 1011.2 |
| 20260506130232 | 49 | 257 | 6.1 | 11.3 | 0.00 | 0.28 | 0.28 | 78 | 1011.2 |
| 20260506125231 | 49 | 257 | 7.0 | 10.4 | 0.00 | 0.28 | 0.28 | 79 | 1011.2 |
| 20260506124230 | 48 | 244 | 6.1 | 12.2 | 0.00 | 0.28 | 0.28 | 79 | 1011.2 |
| 20260506123230 | 48 | 228 | 4.3 | 7.8 | 0.00 | 0.28 | 0.28 | 79 | 1011.0 |
| 20260506122230 | 48 | 236 | 5.2 | 10.4 | 0.00 | 0.28 | 0.28 | 79 | 1010.9 |
| 20260506121230 | 48 | 236 | 7.0 | 13.0 | 0.00 | 0.28 | 0.28 | 79 | 1010.8 |
| 20260506120224 | 48 | 244 | 8.7 | 14.8 | 0.02 | 0.28 | 0.28 | 80 | 1010.8 |
| 20260506115224 | 48 | 225 | 7.0 | 13.9 | 0.02 | 0.28 | 0.28 | 81 | 1010.7 |
| 20260506114223 | 47 | 266 | 7.8 | 15.6 | 0.02 | 0.28 | 0.28 | 82 | 1010.6 |
| 20260506113224 | 47 | 273 | 7.8 | 15.6 | 0.03 | 0.28 | 0.28 | 83 | 1010.6 |
| 20260506112224 | 47 | 248 | 8.7 | 17.4 | 0.05 | 0.28 | 0.28 | 83 | 1010.6 |
| 20260506111220 | 47 | 265 | 7.8 | 16.5 | 0.07 | 0.28 | 0.28 | 83 | 1010.4 |
| 20260506110221 | 48 | 265 | 8.7 | 13.9 | 0.08 | 0.26 | 0.26 | 83 | 1010.3 |
| 20260506103222 | 48 | 196 | 5.2 | 9.6 | 0.21 | 0.24 | 0.24 | 83 | 1010.5 |
| 20260506102221 | 47 | 214 | 4.3 | 7.8 | 0.20 | 0.23 | 0.23 | 83 | 1010.3 |
| 20260506101219 | 48 | 214 | 5.2 | 9.6 | 0.17 | 0.20 | 0.20 | 83 | 1010.3 |
| 20260506100219 | 48 | 214 | 6.1 | 10.4 | 0.15 | 0.18 | 0.18 | 84 | 1010.2 |
| 20260506095220 | 48 | 214 | 7.0 | 13.0 | 0.13 | 0.17 | 0.17 | 84 | 1010.2 |
| 20260506092218 | 0 | 0.0 | 0.0 | 0.02 | 0.04 | 0.03 | 1009.7 | ||
| 20260506091214 | 0 | 0.0 | 0.0 | 0.02 | 0.04 | 0.03 | 1009.3 | ||
| 20260506085120 | 50 | 71 | 0.0 | 0.0 | 0.03 | 0.04 | 0.03 | 82 | 1009.0 |
| 20260506082114 | 50 | 69 | 0.0 | 1.7 | 0.01 | 0.02 | 0.01 | 81 | 1008.6 |
| 20260506081116 | 50 | 67 | 0.9 | 2.6 | 0.01 | 0.02 | 0.01 | 81 | 1008.5 |
| 20260506080118 | 50 | 92 | 0.0 | 2.6 | 0.00 | 0.01 | 0.00 | 81 | 1008.5 |
| 20260506073116 | 50 | 96 | 0.0 | 0.0 | 0.00 | 0.01 | 0.00 | 83 | 1008.3 |
| 20260506072115 | 49 | 96 | 0.0 | 0.0 | 0.00 | 0.01 | 0.00 | 83 | 1008.4 |
| 20260506070115 | 49 | 160 | 0.9 | 1.7 | 0.00 | 0.01 | 0.00 | 84 | 1008.5 |
| 20260506062114 | 47 | 183 | 0.0 | 1.7 | 0.00 | 0.03 | 0.00 | 84 | 1008.8 |
| 20260506061115 | 46 | 69 | 0.0 | 0.0 | 0.00 | 0.03 | 0.00 | 84 | 1008.8 |
| 20260506051111 | 44 | 68 | 0.9 | 2.6 | 0.00 | 0.06 | 0.00 | 84 | 1008.8 |
| 20260506050112 | 44 | 50 | 0.9 | 3.5 | 0.00 | 0.07 | 0.00 | 84 | 1008.7 |
| 20260506045111 | 44 | 50 | 0.0 | 0.9 | 0.00 | 0.07 | 0.00 | 83 | 1008.7 |
| 20260506044112 | 44 | 44 | 1.7 | 3.5 | 0.00 | 0.07 | 0.00 | 83 | 1008.7 |
| 20260506043106 | 44 | 90 | 0.9 | 1.7 | 0.00 | 0.07 | 0.00 | 83 | 1008.6 |
| 20260506042108 | 44 | 90 | 0.9 | 3.5 | 0.00 | 0.07 | 0.00 | 83 | 1008.6 |
| 20260506041107 | 44 | 82 | 0.0 | 0.0 | 0.00 | 0.07 | 0.00 | 83 | 1008.6 |
| 20260506040104 | 44 | 76 | 0.0 | 1.7 | 0.00 | 0.07 | 0.00 | 83 | 1008.7 |
| 20260506035105 | 45 | 76 | 0.0 | 0.9 | 0.00 | 0.07 | 0.00 | 83 | 1008.8 |
| 20260506034102 | 45 | 115 | 0.0 | 0.9 | 0.00 | 0.07 | 0.00 | 83 | 1008.9 |
| 20260506033103 | 45 | 114 | 0.9 | 1.7 | 0.00 | 0.07 | 0.00 | 83 | 1008.9 |
| 20260506032104 | 45 | 115 | 0.0 | 2.6 | 0.00 | 0.07 | 0.00 | 83 | 1009.0 |
| 20260506031102 | 46 | 115 | 0.0 | 0.0 | 0.00 | 0.07 | 0.00 | 83 | 1009.2 |
| 20260506030112 | 46 | 115 | 0.9 | 2.6 | 0.00 | 0.08 | 0.00 | 83 | 1009.3 |
| 20260506025104 | 47 | 114 | 1.7 | 2.6 | 0.00 | 0.08 | 0.00 | 83 | 1009.4 |
| 20260506024102 | 47 | 114 | 0.9 | 1.7 | 0.00 | 0.08 | 0.00 | 83 | 1009.6 |
| 20260506023103 | 47 | 114 | 0.0 | 0.0 | 0.00 | 0.08 | 0.00 | 83 | 1009.6 |
| 20260506022103 | 47 | 114 | 0.0 | 1.7 | 0.00 | 0.08 | 0.00 | 83 | 1009.8 |
| 20260506020056 | 47 | 114 | 0.9 | 1.7 | 0.00 | 0.08 | 0.00 | 82 | 1009.9 |
| 20260506015058 | 48 | 114 | 0.9 | 1.7 | 0.00 | 0.08 | 0.00 | 82 | 1009.8 |
| 20260506014058 | 48 | 114 | 0.9 | 1.7 | 0.00 | 0.08 | 0.00 | 83 | 1010.0 |
| 20260506013056 | 48 | 114 | 0.0 | 0.0 | 0.00 | 0.08 | 0.00 | 83 | 1010.1 |
| 20260506011058 | 48 | 114 | 1.7 | 3.5 | 0.00 | 0.08 | 0.00 | 82 | 1010.3 |
| 20260506005056 | 49 | 114 | 1.7 | 2.6 | 0.00 | 0.08 | 0.00 | 81 | 1010.6 |
| 20260506004052 | 49 | 114 | 1.7 | 2.6 | 0.00 | 0.08 | 0.00 | 82 | 1010.7 |
| 20260506003050 | 49 | 141 | 1.7 | 2.6 | 0.00 | 0.08 | 0.00 | 82 | 1010.9 |
| 20260506002050 | 49 | 141 | 0.9 | 2.6 | 0.00 | 0.08 | 0.00 | 81 | 1011.2 |
| 20260506001052 | 49 | 141 | 0.9 | 2.6 | 0.00 | 0.08 | 0.00 | 81 | 1011.4 |
| 20260506000056 | 49 | 141 | 1.7 | 3.5 | 0.00 | 0.08 | 0.00 | 81 | 1011.5 |
| 20260505235050 | 50 | 141 | 0.0 | 1.7 | 0.00 | 0.08 | 0.00 | 80 | 1011.6 |
| 20260505234051 | 50 | 141 | 0.0 | 1.7 | 0.00 | 0.08 | 0.00 | 79 | 1011.6 |
| 20260505233050 | 51 | 141 | 0.0 | 0.0 | 0.00 | 0.08 | 0.00 | 78 | 1011.7 |
| 20260505231045 | 50 | 141 | 0.0 | 0.9 | 0.00 | 0.08 | 0.00 | 79 | 1011.8 |
| 20260505225044 | 50 | 141 | 0.0 | 0.0 | 0.00 | 0.08 | 0.00 | 78 | 1011.9 |
| 20260505224044 | 50 | 141 | 0.0 | 1.7 | 0.00 | 0.08 | 0.00 | 78 | 1012.0 |
| 20260505223043 | 50 | 141 | 0.0 | 0.0 | 0.00 | 0.08 | 0.00 | 78 | 1012.0 |
| 20260505220044 | 51 | 141 | 0.0 | 1.7 | 0.00 | 0.08 | 0.00 | 77 | 1011.7 |
| 20260505215045 | 51 | 141 | 0.0 | 0.9 | 0.00 | 0.08 | 0.08 | 77 | 1011.8 |
| 20260505213038 | 51 | 141 | 0.0 | 1.7 | 0.00 | 0.08 | 0.08 | 79 | 1011.9 |
| 20260505212037 | 51 | 141 | 2.6 | 3.5 | 0.00 | 0.08 | 0.08 | 79 | 1011.8 |
| 20260505211036 | 51 | 137 | 3.5 | 6.1 | 0.00 | 0.08 | 0.08 | 79 | 1012.0 |
| 20260505210036 | 50 | 138 | 3.5 | 6.1 | 0.00 | 0.08 | 0.08 | 79 | 1012.1 |
| 20260505205035 | 51 | 148 | 3.5 | 6.1 | 0.00 | 0.08 | 0.08 | 79 | 1012.2 |
| 20260505204033 | 50 | 156 | 0.0 | 1.7 | 0.00 | 0.08 | 0.08 | 79 | 1012.3 |